Location: Buckland
(65.9785°N, 161.1281°W)
Time: 15:24:54
(UTC+00:00)

Transit 4A - Pass Details

Date: 03 October 2022
Orbit: 871 x 972 km, 66.8° (Epoch: 29 November)

Event Time Altitude Azimuth Distance (km) Brightness Sun altitude
Exits shadow 15:47:30 - 297° (WNW) 3,176 10.2 -8.4°
Reaches altitude 10° 15:49:06 10° 295° (WNW) 2,578 9.7 -8.3°
Maximum altitude 15:54:55 58° 218° (SW) 1,029 8.0 -7.7°
Drops below altitude 10° 16:00:37 10° 141° (SE) 2,527 10.7 -7.1°
Sets 16:03:07 0° 138° (SE) 3,460 11.5 -6.9°
